Location: Bay Shore Mobile Home Park
(38.5762°N, 75.0841°W)
Time: 19:21:13
(UTC+00:00)

Aureole 3 Rocket - Pass Details

Date: 15 November 2025
Orbit: 398 x 1690 km, 82.5° (Epoch: 08 December)

Event Time Altitude Azimuth Distance (km) Brightness Sun altitude
Rises 23:26:12 0° 203° (SSW) 2,455 6.6 -19.4°
Reaches altitude 10° 23:28:26 10° 213° (SSW) 1,505 5.6 -19.9°
Maximum altitude 23:31:19 33° 281° (W) 700 3.9 -20.4°
Drops below altitude 10° 23:34:07 10° 348° (NNW) 1,459 5.0 -21.0°
Enters shadow 23:34:17 - 349° (N) 1,523 5.1 -21.0°
